Simultaneous Nadir Overpasses (SNOs) Predictions

Prediction of SNOs between GOES-17 and AQUA Satellite Orbit:

Table of predicted SNOs for the next 14.0 days since TLE Epoch: 7/11/2025
Index Date Time (GOES-17) GOES-17 Lat,Lon AQUA Lat,Lon Distance(km) Time Diff (sec)
1 07/12/2025 08:38:09 -0.07, -89.49 -0.42, -87.74 199.03 80
2 07/12/2025 20:54:46 0.07, -89.38 -0.58, -92.40 342.63 80
3 07/14/2025 20:37:02 0.07, -88.88 0.39, -87.38 170.15 80
4 07/15/2025 08:53:29 -0.08, -88.73 0.64, -92.00 372.95 80
5 07/17/2025 08:35:46 -0.08, -88.23 -0.34, -86.99 140.49 80
6 07/17/2025 20:52:21 0.08, -88.13 -0.70, -91.64 400.58 80
7 07/19/2025 20:34:37 0.08, -87.63 0.30, -86.64 112.81 80
8 07/20/2025 08:51:05 -0.09, -87.47 0.72, -91.26 430.55 80
9 07/22/2025 08:33:20 -0.09, -86.97 -0.25, -86.24 82.97 80
10 07/22/2025 20:49:56 0.10, -86.87 -0.79, -90.89 457.69 80
11 07/24/2025 20:32:11 0.10, -86.38 0.20, -85.88 56.64 80
12 07/25/2025 08:48:39 -0.11, -86.22 0.82, -90.50 486.60 80
